Simultaneous Nadir Overpasses (SNOs) Predictions

Prediction of SNOs between NOAA-19 and TERRA Satellite Orbit:

Table of predicted SNOs for the next 14.0 days since TLE Epoch: 3/19/2016
Index Date (NOAA-19) Time (NOAA-19) Lat,Lon (NOAA-19) SZA (NOAA-19 ) Date (TERRA) Time (TERRA) Lat,Lon (TERRA) SZA (TERRA ) Distance(km) Time Diff (sec)
1 03/20/2016 07:38:20 73.56, 71.15 73.46 03/20/2016 07:39:32 73.47, 71.62 73.38 18.16 72
2 03/20/2016 08:29:12 -73.31,-120.99 106.80 03/20/2016 08:29:03 -73.30,-121.09 106.81 3.54 9
3 03/22/2016 13:12:21 -73.43, 168.01 107.55 03/22/2016 13:13:19 -73.41, 168.05 107.57 2.92 58
4 03/22/2016 14:03:23 73.30, -24.47 72.32 03/22/2016 14:02:46 73.31, -24.50 72.33 1.29 37
5 03/24/2016 18:46:31 73.41, -95.43 71.56 03/24/2016 18:47:02 73.40, -95.39 71.56 1.49 31
6 03/24/2016 19:37:27 -73.30, 72.08 108.56 03/24/2016 19:36:32 -73.29, 72.02 108.58 2.12 55
7 03/27/2016 00:20:35 -73.37, 1.17 109.35 03/27/2016 00:20:48 -73.37, 1.11 109.35 2.25 13
8 03/27/2016 01:11:30 72.96, 169.36 70.26 03/27/2016 01:10:20 73.00, 168.01 70.26 44.00 70
9 03/29/2016 05:03:49 -73.74, -70.46 109.85 03/29/2016 05:05:00 -73.64, -69.39 109.92 35.39 71
10 03/29/2016 05:54:44 73.37, 97.69 69.79 03/29/2016 05:54:30 73.38, 97.71 69.80 1.15 14
11 03/31/2016 10:37:51 73.44, 26.80 69.01 03/31/2016 10:38:46 73.43, 26.74 69.00 2.48 55
12 03/31/2016 11:28:50 -73.39,-165.83 111.06 03/31/2016 11:28:15 -73.37,-165.74 111.07 3.11 35
